[[{"header":{"parameterUnit":"m.s-1","parameterCategory":1,"la1":30.2991,"la2":30.254,"lo1":-89.0895,"lo2":-89.0444,"dy":0.0017,"dx":0.0017,"nx":28,"ny":28,"refTime":"2026-02-15T03:00:00:Z","depth":0,"parameterNumber":2,"parameterNumberName":"U-component_of_WINDS"},"data":[0,0,0,0,0,0,0,0,0,0,0,0,0,0,0,0,0,0,0,0,0,0,0,0,0,0,0,0,0,0,0,0,0,0,0,0,0,0,0,0,0,0,0,0,0,0,0,0,0,0,0,0,0,0,0,0,0,0,2.6218,2.6218,0,2.6277,2.6278,2.6278,2.627,2.6269,2.6268,2.6267,2.6327,2.6329,2.6331,0,0,0,0,0,0,0,0,0,0,0,0,0,2.6098,2.61,2.6217,2.6218,2.6219,2.6277,2.6278,2.6278,2.627,2.6269,2.6268,2.6266,2.6326,2.6329,2.6332,0,0,0,0,0,0,0,0,0,0,0,0,0,2.6153,2.6101,2.6217,2.6222,2.6223,2.6277,2.6278,2.6279,2.627,2.6269,2.6267,2.6266,2.6325,2.6328,2.6332,2.6385,0,0,2.6344,2.6345,0,0,0,0,0,0,0,0,2.6149,2.6157,2.622,2.6222,2.6223,2.6265,2.6257,2.6314,2.6271,2.6252,2.6267,2.6265,2.6307,2.6312,2.6326,2.6388,2.639,2.6344,2.6346,2.6348,2.6349,0,0,0,0,0,0,0,2.6146,2.6154,2.6241,2.6221,2.6223,2.6221,2.6227,2.6268,2.6287,2.6254,2.6253,2.626,2.6307,2.6323,2.6328,2.6391,2.6344,2.6347,2.6349,2.6351,2.6502,2.6503,0,0,0,0,0,0,2.6141,2.6151,2.6239,2.6243,2.6182,2.6224,2.6231,2.6253,2.6287,2.629,2.6262,2.626,2.6317,2.6323,2.633,2.6396,2.6348,2.6351,2.6353,2.65,2.6502,2.6504,0,0,0,0,0,0,2.6138,2.6149,2.6237,2.6197,2.6208,2.6228,2.6252,2.6255,2.627,2.6293,2.6296,2.6274,2.6316,2.6325,2.6372,2.6398,2.6353,2.6356,2.6498,2.6501,2.6503,2.6527,0,0,0,0,0,0,2.6135,2.6148,2.6168,2.6197,2.621,2.6278,2.6254,2.6257,2.6277,2.6275,2.6305,2.6309,2.6316,2.6366,2.6376,2.6402,2.6359,2.6496,2.6499,2.6502,2.6524,2.653,2.6535,0,0,0,0,0,2.613,2.6171,2.6169,2.6179,2.6235,2.6279,2.6286,2.6294,2.6279,2.6299,2.6314,2.6308,2.6393,2.6371,2.6382,2.6409,2.6494,2.6498,2.6502,2.6521,2.6528,2.6535,0,0,0,0,0,0,2.6142,2.6175,2.6172,2.6224,2.6249,2.6277,2.6303,2.6301,2.633,2.6327,2.6335,2.6342,2.6391,2.6405,2.638,2.6464,2.6442,2.6448,2.6453,2.646,2.6465,2.6461,2.6362,0,0,0,0,0,2.6151,2.6184,2.621,2.6253,2.6266,2.6283,2.6302,2.6306,2.6332,2.6342,2.6361,2.6386,2.6419,2.644,2.6472,2.6526,2.6533,2.655,2.6556,2.6561,2.6566,2.6598,2.6606,2.6517,2.6517,2.6517,0,0,2.6169,2.6191,2.621,2.6256,2.6276,2.631,2.6291,2.6328,2.6353,2.6347,2.6394,2.6409,2.6438,2.649,2.6513,2.6503,2.6592,2.6566,2.6569,2.6572,2.6603,2.6611,2.6619,2.652,2.6519,2.6519,0,0,2.6219,2.6238,2.6277,2.6298,2.6329,2.6341,2.635,2.638,2.639,2.6437,2.6434,2.6465,2.6521,2.6542,2.6561,2.6623,2.6619,2.6633,2.6662,2.6693,2.67,2.6707,2.673,2.6738,2.6638,2.6638,2.6638,0,2.6237,2.6288,2.6297,2.6335,2.6356,2.6354,2.6394,2.6413,2.6453,2.6468,2.6456,2.6528,2.6547,2.6605,2.6621,2.6635,2.6647,2.6629,2.6699,2.6705,2.6711,2.6734,2.6742,2.664,2.664,2.664,2.6639,0,2.631,2.6346,2.6373,2.6413,2.6437,2.6476,2.6491,2.6515,2.6518,2.6531,2.658,2.6603,2.6641,2.6655,2.6657,2.6714,2.6707,2.6697,2.6675,2.6721,2.6742,2.6751,2.6642,2.6642,2.6641,2.6641,0,0,2.6366,2.6413,2.6423,2.6442,2.6478,2.6506,2.6545,2.6583,2.6603,2.6632,2.6666,2.6715,2.6707,2.6728,2.6733,2.676,2.681,2.6747,2.6748,2.6759,2.6876,2.6884,2.6893,2.6808,2.681,2.6811,2.6874,0,2.6421,2.6491,2.6501,2.6563,2.6597,2.6598,2.6633,2.6659,2.6673,2.6704,2.672,2.6755,2.6741,2.6754,2.6781,2.6798,2.6834,2.6794,2.684,2.6842,2.6833,2.6904,2.6912,2.697,2.6882,2.6884,2.6885,0,2.6492,2.6524,2.659,2.6624,2.6638,2.6669,2.6706,2.6736,2.6766,2.6775,2.68,2.6803,2.6845,2.6822,2.6881,2.6854,2.6874,2.6885,2.6888,2.6892,2.6866,2.6911,2.6988,2.6997,2.6898,2.6897,2.6896,0,2.6529,2.6588,2.6635,2.6652,2.6692,2.6714,2.6731,2.6761,2.6783,2.6816,2.6831,2.6867,2.6887,2.6916,2.6929,2.6911,2.6988,2.6965,2.6997,2.6997,2.7012,2.7011,2.7094,2.7025,2.7025,2.7025,2.7024,0,2.6588,2.6628,2.6653,2.6682,2.6728,2.674,2.6786,2.6803,2.6829,2.6863,2.6865,2.6896,2.6912,2.6946,2.6956,2.7005,2.7013,2.7022,2.7024,2.7022,2.7021,2.7035,2.7031,2.7027,2.7026,2.7026,2.7026,0,2.6635,2.6653,2.6705,2.674,2.675,2.6782,2.6812,2.6841,2.6856,2.6899,2.6909,2.6933,2.6973,2.699,2.7038,2.7046,2.7102,2.7101,2.7092,2.7092,2.7123,2.712,2.7218,2.7232,2.7153,2.7154,2.7155,0,2.6672,2.6703,2.6742,2.6765,2.6784,2.682,2.6845,2.6859,2.6884,2.6923,2.6948,2.6989,2.7022,2.7087,2.7108,2.7146,2.7147,2.7179,2.7152,2.715,2.7148,2.7146,2.715,2.7183,2.7184,2.7184,2.7185,0,2.6735,2.6743,2.6778,2.6817,2.6846,2.6877,2.6907,2.6925,2.6945,2.6973,2.7015,2.7041,2.7093,2.7134,2.7174,2.7192,2.7193,2.7194,2.7203,2.72,2.7194,2.7199,2.7105,2.7191,2.719,2.719,2.7189,2.7189,2.6779,2.6808,2.684,2.688,2.6905,2.6934,2.6963,2.6983,2.7019,2.7062,2.7069,2.7114,2.7147,2.7201,2.7222,2.7258,2.725,2.7263,2.7266,2.7269,2.7272,2.7189,2.7265,2.7265,2.7265,2.7265,2.7265,0,2.6843,2.6865,2.6901,2.6944,2.6976,2.6975,2.7009,2.7035,2.7075,2.7106,2.7139,2.7189,2.7229,2.7256,2.7297,2.7321,2.7322,2.7331,2.7329,2.7334,2.7276,2.7265,2.733,2.733,2.733,2.733,2.733,2.733,2.688,2.693,2.6942,2.7005,2.7026,2.7071,2.7091,2.7119,2.7143,2.7199,2.7233,2.725,2.728,2.7324,2.7361,2.7368,2.7383,2.7393,2.7399,2.7345,2.7338,2.7331,2.732,2.7396,2.7396,2.7454,2.7455,2.7455]},{"header":{"parameterUnit":"m.s-1","parameterCategory":1,"la1":30.2991,"la2":30.254,"lo1":-89.0895,"lo2":-89.0444,"dy":0.0017,"dx":0.0017,"nx":28,"ny":28,"refTime":"2026-02-15T03:00:00:Z","depth":0,"parameterNumber":3,"parameterNumberName":"V-component_of_WINDS"},"data":[0,0,0,0,0,0,0,0,0,0,0,0,0,0,0,0,0,0,0,0,0,0,0,0,0,0,0,0,0,0,0,0,0,0,0,0,0,0,0,0,0,0,0,0,0,0,0,0,0,0,0,0,0,0,0,0,0,0,-5.7089,-5.709,0,-5.7208,-5.7209,-5.721,-5.7198,-5.7196,-5.7195,-5.7193,-5.7309,-5.7314,-5.7318,0,0,0,0,0,0,0,0,0,0,0,0,0,-5.6849,-5.6854,-5.7089,-5.709,-5.7092,-5.7207,-5.7209,-5.7211,-5.7199,-5.7196,-5.7194,-5.7192,-5.7307,-5.7313,-5.7319,0,0,0,0,0,0,0,0,0,0,0,0,0,-5.6959,-5.6855,-5.7088,-5.71,-5.7102,-5.7207,-5.7209,-5.7211,-5.7199,-5.7196,-5.7193,-5.7191,-5.7306,-5.7313,-5.732,-5.7419,0,0,-5.7342,-5.7345,0,0,0,0,0,0,0,0,-5.6953,-5.6968,-5.7097,-5.7099,-5.7102,-5.7185,-5.7167,-5.7281,-5.72,-5.7162,-5.7193,-5.719,-5.727,-5.728,-5.7308,-5.7425,-5.743,-5.7342,-5.7347,-5.735,-5.7352,0,0,0,0,0,0,0,-5.6945,-5.6962,-5.7135,-5.7098,-5.7102,-5.7098,-5.7111,-5.7189,-5.723,-5.7165,-5.7165,-5.7179,-5.7271,-5.7301,-5.731,-5.7432,-5.7342,-5.7349,-5.7353,-5.7356,-5.764,-5.7643,0,0,0,0,0,0,-5.6935,-5.6956,-5.7132,-5.7139,-5.7019,-5.7105,-5.7119,-5.7161,-5.7229,-5.7237,-5.7181,-5.7178,-5.729,-5.7302,-5.7315,-5.7438,-5.735,-5.7357,-5.7361,-5.7636,-5.764,-5.7644,0,0,0,0,0,0,-5.693,-5.6951,-5.7127,-5.7048,-5.707,-5.7112,-5.716,-5.7165,-5.7195,-5.7241,-5.7248,-5.7205,-5.7288,-5.7304,-5.7395,-5.7442,-5.736,-5.7366,-5.7633,-5.7638,-5.7642,-5.7684,0,0,0,0,0,0,-5.6923,-5.6949,-5.6988,-5.7049,-5.7074,-5.7206,-5.7162,-5.7169,-5.7209,-5.7205,-5.7265,-5.7272,-5.7287,-5.7384,-5.7402,-5.745,-5.7372,-5.7629,-5.7635,-5.7641,-5.7679,-5.769,-5.7699,0,0,0,0,0,-5.6915,-5.6993,-5.699,-5.7011,-5.7124,-5.7209,-5.7223,-5.724,-5.7212,-5.7252,-5.7282,-5.727,-5.7434,-5.7393,-5.7413,-5.7464,-5.7626,-5.7633,-5.764,-5.7674,-5.7687,-5.7699,0,0,0,0,0,0,-5.6934,-5.7001,-5.6998,-5.7099,-5.7149,-5.7206,-5.7256,-5.7253,-5.731,-5.7305,-5.7322,-5.7336,-5.7427,-5.7455,-5.7408,-5.7566,-5.7526,-5.7537,-5.7545,-5.7558,-5.7568,-5.7559,-5.7378,0,0,0,0,0,-5.695,-5.7015,-5.707,-5.7153,-5.7178,-5.7213,-5.7251,-5.726,-5.7311,-5.7332,-5.7368,-5.7417,-5.748,-5.752,-5.758,-5.7683,-5.7696,-5.7728,-5.7738,-5.7747,-5.7756,-5.7815,-5.783,-5.7667,-5.7667,-5.7667,0,0,-5.6983,-5.7028,-5.7067,-5.7158,-5.7197,-5.7264,-5.7231,-5.7301,-5.735,-5.7342,-5.743,-5.7459,-5.7515,-5.7613,-5.7657,-5.7638,-5.7805,-5.7756,-5.7762,-5.7767,-5.7824,-5.7839,-5.7853,-5.7672,-5.7672,-5.7671,0,0,-5.7078,-5.7119,-5.7194,-5.7235,-5.7297,-5.732,-5.7339,-5.7398,-5.7418,-5.7508,-5.7504,-5.7562,-5.7669,-5.771,-5.7745,-5.786,-5.7853,-5.7879,-5.7932,-5.7989,-5.8002,-5.8014,-5.8056,-5.8071,-5.7888,-5.7888,-5.7889,0,-5.7111,-5.7212,-5.7232,-5.7305,-5.7346,-5.7344,-5.7421,-5.746,-5.7537,-5.7564,-5.7543,-5.768,-5.7717,-5.7825,-5.7854,-5.7882,-5.7904,-5.7872,-5.7999,-5.8011,-5.8022,-5.8062,-5.8078,-5.7891,-5.7891,-5.7891,-5.789,0,-5.7251,-5.7321,-5.7375,-5.7453,-5.7499,-5.7573,-5.7604,-5.7649,-5.7656,-5.7681,-5.7774,-5.7819,-5.789,-5.7916,-5.7921,-5.8027,-5.8013,-5.7995,-5.7955,-5.804,-5.8078,-5.8094,-5.7896,-5.7894,-5.7894,-5.7893,0,0,-5.7358,-5.745,-5.7469,-5.7506,-5.7576,-5.763,-5.7705,-5.7777,-5.7815,-5.7869,-5.7933,-5.8026,-5.8011,-5.805,-5.8061,-5.8111,-5.8202,-5.8087,-5.8089,-5.8108,-5.8322,-5.8336,-5.8354,-5.8198,-5.8201,-5.8203,-5.8318,0,-5.7461,-5.7596,-5.7618,-5.7735,-5.7802,-5.7803,-5.7869,-5.7918,-5.7945,-5.8005,-5.8034,-5.81,-5.8074,-5.8099,-5.8149,-5.818,-5.8245,-5.8172,-5.8257,-5.826,-5.8243,-5.8374,-5.8387,-5.8493,-5.8333,-5.8336,-5.8338,0,-5.7598,-5.766,-5.7785,-5.7849,-5.7878,-5.7936,-5.8006,-5.8063,-5.812,-5.8136,-5.8183,-5.8188,-5.8266,-5.8224,-5.8332,-5.8282,-5.8318,-5.8339,-5.8344,-5.8352,-5.8304,-5.8386,-5.8527,-5.8543,-5.8361,-5.8359,-5.8358,0,-5.7665,-5.7779,-5.787,-5.7901,-5.7978,-5.802,-5.8053,-5.8108,-5.8151,-5.8211,-5.824,-5.8307,-5.8344,-5.8396,-5.842,-5.8386,-5.8527,-5.8486,-5.8543,-5.8542,-5.8571,-5.8569,-5.8721,-5.8594,-5.8594,-5.8594,-5.8593,0,-5.7778,-5.7855,-5.7902,-5.7957,-5.8044,-5.8069,-5.8154,-5.8186,-5.8236,-5.8298,-5.8303,-5.836,-5.8388,-5.8451,-5.8469,-5.8557,-5.8573,-5.8589,-5.8593,-5.8589,-5.8587,-5.8612,-5.8606,-5.8598,-5.8597,-5.8596,-5.8596,0,-5.7867,-5.7902,-5.8001,-5.8067,-5.8086,-5.8147,-5.8204,-5.8258,-5.8286,-5.8365,-5.8384,-5.8428,-5.8502,-5.8531,-5.862,-5.8633,-5.8735,-5.8732,-5.8716,-5.8717,-5.8773,-5.8768,-5.8946,-5.8972,-5.8828,-5.8829,-5.883,0,-5.7936,-5.7996,-5.8071,-5.8114,-5.815,-5.8219,-5.8264,-5.8291,-5.8338,-5.841,-5.8456,-5.853,-5.8591,-5.8709,-5.8748,-5.8817,-5.8817,-5.8875,-5.8827,-5.8822,-5.8819,-5.8815,-5.8822,-5.8883,-5.8885,-5.8886,-5.8887,0,-5.8056,-5.8072,-5.8137,-5.8211,-5.8265,-5.8323,-5.838,-5.8415,-5.8451,-5.8503,-5.858,-5.8628,-5.8722,-5.8796,-5.8868,-5.8901,-5.8901,-5.8902,-5.8919,-5.8915,-5.8904,-5.8912,-5.8741,-5.8898,-5.8896,-5.8896,-5.8895,-5.8895,-5.8138,-5.8193,-5.8255,-5.8329,-5.8376,-5.8429,-5.8485,-5.8522,-5.8587,-5.8667,-5.8679,-5.8762,-5.8821,-5.8918,-5.8955,-5.902,-5.9005,-5.9029,-5.9035,-5.9041,-5.9046,-5.8894,-5.9033,-5.9033,-5.9033,-5.9032,-5.9032,0,-5.826,-5.8301,-5.8369,-5.845,-5.8509,-5.8506,-5.857,-5.8619,-5.8693,-5.8748,-5.881,-5.89,-5.8973,-5.9019,-5.9092,-5.9136,-5.9137,-5.9154,-5.9151,-5.9159,-5.9054,-5.9033,-5.9152,-5.9152,-5.9152,-5.9152,-5.9152,-5.9152,-5.833,-5.8423,-5.8446,-5.8563,-5.8603,-5.8687,-5.8724,-5.8774,-5.8819,-5.892,-5.8982,-5.9013,-5.9065,-5.9143,-5.921,-5.9222,-5.9249,-5.9267,-5.9278,-5.9179,-5.9166,-5.9154,-5.9134,-5.9273,-5.9273,-5.9378,-5.9379,-5.938]}]]